Regional Weather Roundup
Issued by NWS Albany, NY

Home | Current Version | Previous Version | Text Only | Print | Product List | Glossary On
Versions: 1 2 3 4 5 6 7 8 9 10 11 12 13 14 15 16 17 18 19 20 21 22 23 24 25 26 27 28 29 30 31 32 33 34 35 36 37 38 39 40 41 42 43 44 45 46 47 48
000
ASUS41 KALY 010110
RWRALY

NEW YORK STATE HOURLY WEATHER ROUNDUP
NATIONAL WEATHER SERVICE ALBANY NY
900 PM EDT TUE SEP 30 2014

NOTE: "FAIR" INDICATES FEW OR NO CLOUDS BELOW 12,000 FEET WITH NO
SIGNIFICANT WEATHER AND/OR NO OBSTRUCTIONS TO VISIBILITY.

NYZ032-033-038>043-046>054-057>066-NYZ062>081-010200-
EAST


CITY           SKY/WX    TMP DP  RH WIND       PRES   REMARKS
ALBANY         MOCLDY    62  55  77 S6        29.99R
GLENS FALLS    MOCLDY    63  59  87 CALM      29.99R
POUGHKEEPSIE   FAIR      59  55  87 E5        29.98R
MONTGOMERY     FAIR      61  57  87 NE3       29.98R
WHITE PLAINS   MOCLDY    61  57  87 E5        29.98R
ISLIP          CLOUDY    63  58  83 E7        29.96R
NEW YORK CITY  CLOUDY    65  58  78 E9        29.97R
CENTRAL PARK   CLOUDY    65  57  75 E7        30.00R
$$

NYZ005>009-017-018-044>046-055-056-010200-
CENTRAL


CITY           SKY/WX    TMP DP  RH WIND       PRES   REMARKS
FULTON         FAIR      62  59  90 NE3       29.96R
SYRACUSE       TSTM      68  62  81 SW6       29.95R
ROME           FAIR      64  57  78 E8        29.97R
ELMIRA         MOCLDY    61  60  97 W3        29.94R FOG
BINGHAMTON     LGT RAIN  60  59  96 SE3       29.97R
MONTICELLO     CLOUDY    61  57  88 SE6       30.01R
$$

NYZ026>034-041>043-010200-
NORTH


CITY           SKY/WX    TMP DP  RH WIND       PRES   REMARKS
WATERTOWN      FAIR      59  51  75 NE8       29.99R
FORT DRUM      NOT AVBL
MASSENA        FAIR      57  54  89 E10       30.04R
SARANAC LAKE   FAIR      58  55  90 NE7       30.01R
PLATTSBURGH    MOCLDY    60  52  74 N12       30.03R
$$

NYZ001>004-010>016-019>021-010200-
WEST


CITY           SKY/WX    TMP DP  RH WIND       PRES   REMARKS
NIAGARA FALLS  MOCLDY    58  55  90 NE6       29.95R
BUFFALO        CLOUDY    62  57  83 NE6       29.95R
DUNKIRK        MOCLDY    58  57  97 S5        29.96R FOG
JAMESTOWN      CLOUDY    55  54  94 NE6       29.98R
WELLSVILLE     TSTM      58  55  90 NW5       29.99R
ROCHESTER      CLOUDY    63  59  87 E7        29.98R
PENN YAN       CLOUDY    62  32  32 CALM      29.97R HAZE
$$

             KEY
       WCI = WIND CHILL INDEX
       VSB = VISIBILITY
       HX  = HEAT INDEX
$$



USA.gov is the U.S. government's official web portal to all federal, state and local government web resources and services.